Zurück zum Katalog

HULIANWANG DIGUI-119

AktivKommunikationLEO
NORAD 67059·PAYLOAD·🇨🇳 China

Gestartet Dec 11, 2025 von Wenchang Space Launch Site

Loading…

Nächste Überflüge (nächste 24 Stunden)

TLE

AktuellSource: Space-Track

Epoche: Sep 14, 2026, 11:16 UTC

1 67059U 25295A   26257.46977758 -.00000120  00000-0  78688-5 0  9991
2 67059  50.0034  65.5632 0000811  63.4138 296.6817 13.29325768 37378

Verfolge HULIANWANG DIGUI-119 in Echtzeit mit AllMySat

Download on the App Store